SCP
0 0 0 0 0 0 0 0 0 0 0 0 0 0 0 0 0 0 0 0 0 0 0 0 0 0 0 0 0 0 0 0 0 0 0 0 0 0 0 0 0 0 0
0 0 0 0 0 0 0 0 0 0 0 0 0 0 0 0 0 0 0 0 0 0 0 0 0 0 0 0 0 0 0 0 0 0 0 0 0 0 0 0 0 0 0
0 0 0 0 0 0 0 0 0 0 0 0 0 0 0 0 0 0 0 0 0 0 0 0 0 0 0 0 0 0 0 0 0 0 0 0 0 0 0 0 0 0 0
0 0 0 0 0 0 0 0 0 0 0 0 0 0 0 0 0 0 0 0 0 0 0 0 0 0 0 0 0 0 0 0 0 0 0 0 0 0 0 0 0 0 0
0 0 0 0 0 0 0 0 0 0 0 0 0 0 0 0 0 0 0 0 0 0 0 0 0 0 0 0 0 0 0 0 0 0 0 0 0 0 0 0 0 0 0
0 0 0 0 0 0 0 0 0 0 0 0 0 0 0 0 0 0 0 0 0 0 0 0 0 0 0 0 0 0 0 0 0 0 0 0 0 0 0 0 0 0 0
0 0 0 0 0 0 0 0 0 0 0 0 0 0 0 0 0 0 0 0 0 0 0 0 0 0 0 0 0 0 0 0 0 0 0 0 0 0 0 0 0 0 0
0 0 0 0 0 0 0 0 0 0 0 0 0 0 0 0 0 0 0 0 0 0 0 0 0 0 0 0 0 0 0 0 0 0 0 0 0 0 0 0 0 0 0
0 0 0 0 0 0 0 0 0 0 0 0 0 0 0 0 0 0 0 0 0 0 0 0 0 0 0 0 0 0 0 0 0 0 0 0 0 0 0 0 0 0 0
0 0 0 0 0 0 0 0 0 0 0 0 0 0 0 0 0 0 0 0 0 0 0 0 0 0 0 0 0 0 0 0 0 0 0 0 0 0 0 0 0 0 0
0 0 0 0 0 0 0 0 0 0 0 0 0 0 0 0 0 0 0 0 0 0 0 0 0 0 0 0 0 0 0 0 0 0 0 0 0 0 0 0 0 0 0
0 0 0 0 0 0 0 0 0 0 0 0 0 0 0 0 0 0 0 0 0 0 0 0 0 0 0 0 0 0 0 0 0 0 0 0 0 0 0 0 0 0 0
0 0 0 0 0 0 0 0 0 0 0 0 0 0 0 0 0 0 0 0 0 0 0 0 0 0 0 0 0 0 0 0 0 0 0 0 0 0 0 0 0 0 0
0 0 0 0 0 0 0 0 0 0 0 0 0 0 0 0 0 0 0 0 0 0 0 0 0 0 0 0 0 0 0 0 0 0 0 0 0 0 0 0 0 0 0
0 0 0 0 0 0 0 0 0 0 0 0 0 0 0 0 0 0 0 0 0 0 0 0 0 0 0 0 0 0 0 0 0 0 0 0 0 0 0 0 0 0 0
0 0 0 0 0 0 0 0 0 0 0 0 0 0 0 0 0 0 0 0 0 0 0 0 0 0 0 0 0 0 0 0 0 0 0 0 0 0 0 0 0 0 0
0 0 0 0 0 0 0 0 0 0 0 0 0 0 0 0 0 0 0 0 0 0 0 0 0 0 0 0 0 0 0 0 0 0 0 0 0 0 0 0 0 0 0
0 0 0 0 0 0 0 0 0 0 0 0 0 0 0 0 0 0 0 0 0 0 0 0 0 0 0 0 0 0 0 0 0 0 0 0 0 0 0 0 0 0 0
0 0 0 0 0 0 0 0 0 0 0 0 0 0 0 0 0 0 0 0 0 0 0 0 0 0 0 0 0 0 0 0 0 0 0 0 0 0 0 0 0 0 0
0 0 0 0 0 0 0 0 0 0 0 0 0 0 0 0 0 0 0 0 0 0 0 0 0 0 0 0 0 0 0 0 0 0 0 0 0 0 0 0 0 0 0
0 0 0 0 0 0 0 0 0 0 0 0 0 0 0 0 0 0 0 0 0 0 0 0 0 0 0 0 0 0 0 0 0 0 0 0 0 0 0 0 0 0 0
0 0 0 0 0 0 0 0 0 0 0 0 0 0 0 0 0 0 0 0 0 0 0 0 0 0 0 0 0 0 0 0 0 0 0 0 0 0 0 0 0 0 0
0 0 0 0 0 0 0 0 0 0 0 0 0 0 0 0 0 0 0 0 0 0 0 0 0 0 0 0 0 0 0 0 0 0 0 0 0 0 0 0 0 0 0
0 0 0 0 0 0 0 0 0 0 0 0 0 0 0 0 0 0 0 0 0 0 0 0 0 0 0 0 0 0 0 0 0 0 0 0 0 0 0 0 0 0 0
0 0 0 0 0 0 0 0 0 0 0 0 0 0 0 0 0 0 0 0 0 0 0 0 0 0 0 0 0 0 0 0 0 0 0 0 0 0 0 0 0 0 0
0 0 0 0 0 0 0 0 0 0 0 0 0 0 0 0 0 0 0 0 0 0 0 0 0 0 0 0 0 0 0 0 0 0 0 0 0 0 0 0 0 0 0
Wind_Speed_500mb
15 13 11 11 10 9 8 7 6 5 5 5 5 7 10 13 14 13 18 19 23 25 24 10 9 10 12 13 16 19 18 21 19 21 24 22 24 24 21 22 22 21 21
22 20 18 17 16 14 14 12 12 11 9 9 9 9 11 15 17 20 24 27 29 28 27 24 16 14 14 16 17 20 21 22 22 23 22 24 24 23 22 22 21 19 18
27 25 25 23 21 21 22 21 18 17 15 16 18 20 21 19 19 24 30 31 34 33 31 32 26 21 20 20 22 22 25 27 25 25 24 24 24 24 23 21 20 18 17
32 31 32 32 29 30 30 31 29 28 30 28 28 28 29 30 29 32 37 39 39 39 39 38 37 36 29 26 27 27 28 32 30 29 29 28 27 25 24 23 20 17 15
38 37 40 36 35 36 38 42 40 40 42 44 43 42 42 40 44 41 37 40 45 48 48 47 46 49 45 38 34 37 36 39 37 35 34 32 31 29 26 25 23 21 17
40 46 46 46 48 48 42 40 47 48 50 50 54 54 57 53 55 54 55 54 54 52 57 56 56 57 58 54 45 43 42 42 41 44 42 40 37 35 33 28 27 25 22
49 46 47 51 53 59 57 54 52 52 57 56 60 62 65 67 65 68 63 67 66 65 66 66 65 66 68 66 62 53 49 49 51 51 51 46 43 41 39 35 33 30 25
62 61 59 55 55 60 64 71 62 65 64 66 66 69 62 67 74 72 71 74 73 75 75 76 75 77 76 77 75 71 63 59 59 59 59 54 51 47 43 41 38 35 30
66 69 70 70 68 64 69 66 75 83 79 72 73 68 33 44 53 52 58 57 56 71 78 82 81 83 87 87 83 83 83 75 65 64 66 61 58 54 50 45 41 39 34
65 66 69 69 70 72 73 64 66 74 72 88 87 85 90 87 55 51 64 60 65 68 69 75 86 85 92 95 95 94 93 93 86 78 72 72 66 61 56 51 48 45 40
61 61 60 63 64 67 67 72 71 73 77 81 87 93 99 100 101 96 70 87 87 85 87 86 76 83 95 97 101 104 103 100 99 90 83 85 79 69 63 57 52 49 44
54 53 55 58 58 61 64 67 70 77 77 84 90 90 97 92 92 96 103 106 96 98 89 89 96 90 88 93 93 111 112 105 108 102 94 91 88 79 70 60 56 53 48
44 45 47 52 58 60 60 65 73 74 71 78 82 88 93 105 91 106 93 90 100 101 99 96 99 94 94 93 90 85 100 104 114 112 104 102 99 94 83 66 58 54 52
35 39 43 48 53 57 64 70 72 75 77 82 83 86 92 92 91 92 90 99 93 89 100 106 99 97 91 87 89 81 81 86 104 116 116 114 107 108 96 87 71 57 56
27 31 36 41 44 50 57 64 71 76 80 83 86 85 89 90 90 91 93 88 87 87 96 78 85 87 87 81 82 80 84 80 81 96 114 122 109 114 97 94 84 62 60
36 37 37 39 41 46 50 57 64 71 75 82 85 87 89 89 90 90 91 91 92 93 109 83 85 89 87 87 80 85 82 83 88 85 92 120 112 117 100 98 77 63 57
46 48 50 52 52 52 52 57 62 67 75 80 85 86 91 88 90 91 92 89 90 88 97 109 96 98 94 94 90 83 78 83 81 77 78 97 114 114 88 84 74 64 60
49 53 56 60 62 64 63 64 66 67 71 76 81 86 90 88 91 89 87 87 88 89 89 103 98 99 97 94 88 80 80 81 80 77 69 90 117 114 93 82 80 70 62
49 51 56 58 59 59 61 63 66 69 71 74 76 79 83 80 84 80 80 82 86 86 88 92 101 95 97 94 85 86 82 79 77 76 67 70 105 108 76 78 68 68 65
49 49 49 52 55 59 63 65 66 68 70 72 74 75 77 79 77 73 74 78 79 83 85 88 92 95 97 91 84 86 84 80 76 71 60 57 80 84 80 73 74 65 63
53 55 57 56 58 59 59 63 67 72 76 75 73 73 71 67 66 68 70 74 76 79 80 86 87 88 94 91 90 87 79 74 68 65 56 57 71 71 76 66 71 56 71
66 65 63 66 67 67 67 67 69 70 70 72 75 71 64 59 63 66 69 72 73 78 83 83 87 87 89 86 78 70 65 62 59 59 54 55 65 80 79 77 65 67 70
74 74 73 74 74 73 73 75 74 72 71 69 67 65 64 63 60 65 67 69 73 76 81 78 81 79 77 71 56 54 55 54 59 50 44 59 67 78 74 71 65 76 70
81 82 81 79 79 74 74 74 74 72 69 66 61 59 62 65 63 62 66 69 71 72 75 70 72 67 58 50 42 37 40 46 41 32 37 49 61 69 69 62 60 62 56
82 85 85 83 80 77 71 71 71 68 68 66 58 53 58 62 60 59 63 66 63 61 56 50 45 44 41 37 32 30 34 41 34 33 39 42 50 54 52 50 55 48 43
80 82 81 76 75 75 71 66 60 59 61 57 51 47 49 53 54 53 53 53 54 48 37 31 29 29 27 22 19 17 25 41 39 30 36 39 31 39 36 45 45 46 52
Wind_Direction_500mb
251 248 253 246 243 241 237 228 231 252 276 288 298 291 287 292 291 272 272 294 304 313 315 292 224 213 200 185 187 180 173 178 172 173 159 166 150 151 151 146 141 135 129
247 248 249 250 249 246 241 237 234 242 256 268 280 284 297 291 287 294 291 299 297 301 303 298 266 229 232 217 208 199 194 191 189 188 186 180 173 173 168 164 158 151 144
253 257 256 258 258 260 255 248 250 260 276 298 294 290 275 273 294 294 287 286 283 285 290 288 284 251 234 223 221 224 214 203 206 200 199 195 191 187 182 179 173 168 159
249 255 256 255 256 257 263 259 250 246 250 254 259 271 274 281 280 282 283 281 279 280 280 277 275 272 241 234 232 227 222 216 211 214 206 204 198 198 198 194 191 187 178
251 254 261 261 257 259 261 264 264 259 257 259 259 265 263 267 268 265 269 273 280 281 277 276 271 272 266 239 233 226 225 221 216 215 212 209 205 205 206 203 207 204 200
256 258 259 263 262 258 253 261 264 271 264 266 266 264 270 265 269 267 266 269 267 264 270 269 269 269 268 266 249 234 232 231 228 223 217 213 215 213 213 210 213 217 214
265 263 262 258 260 263 263 257 256 264 266 267 263 268 266 269 269 270 269 265 267 268 267 267 268 268 266 264 262 253 240 236 233 232 227 221 222 219 218 214 222 225 226
263 266 269 269 264 263 263 265 253 260 262 261 262 265 264 277 275 271 270 273 269 267 266 267 267 265 266 264 263 260 246 237 237 234 232 226 225 221 220 225 226 228 229
267 267 268 269 271 269 265 270 266 258 263 260 261 255 249 259 273 279 275 273 274 270 267 266 264 268 262 264 265 262 259 247 236 237 235 229 227 224 224 223 225 231 232
276 275 274 273 273 273 272 277 270 268 271 271 255 258 261 258 261 273 275 279 277 275 272 270 264 265 266 262 262 263 261 256 252 236 234 236 230 228 227 227 229 232 233
280 282 282 278 275 272 281 276 277 276 272 277 270 271 259 259 257 259 269 275 275 278 276 281 269 274 272 264 263 264 259 255 256 249 237 234 235 227 224 225 230 232 233
283 284 285 284 284 278 277 279 280 277 278 277 275 273 271 264 274 271 264 274 274 287 281 275 280 279 278 271 274 268 261 258 256 251 245 238 235 229 220 224 229 233 233
281 281 279 277 278 283 281 279 279 279 278 276 276 279 274 274 275 270 271 275 275 289 281 281 288 281 286 280 281 281 269 266 256 251 252 244 236 231 227 224 227 230 233
281 279 275 271 267 264 268 271 273 274 274 274 278 279 280 273 276 274 279 278 277 280 285 284 287 287 285 286 290 281 278 273 267 252 250 244 239 232 229 232 223 231 231
301 294 289 284 278 273 268 265 267 269 269 270 272 273 273 273 276 276 276 276 276 275 276 276 281 282 285 283 293 284 283 278 269 260 246 242 242 233 229 230 236 230 229
307 303 298 291 286 282 277 273 271 272 272 272 271 271 270 271 272 274 273 273 273 273 277 279 277 282 283 281 286 280 282 281 276 271 253 241 234 234 230 234 230 224 228
309 305 302 299 298 296 291 285 281 277 274 275 276 276 276 275 273 272 274 273 274 272 274 282 283 285 284 285 284 283 281 281 278 275 260 237 231 231 222 234 222 222 223
316 311 308 304 301 298 294 290 287 283 278 275 275 276 276 277 277 277 278 276 276 277 275 281 285 285 285 284 283 281 281 280 276 270 260 230 231 229 229 229 218 224 225
320 318 317 315 312 307 302 298 293 289 285 282 279 275 275 274 273 272 277 276 277 279 279 281 283 283 280 281 281 281 281 278 271 266 260 244 236 233 223 211 222 223 221
321 316 312 308 307 306 307 305 299 294 290 286 283 279 277 274 273 275 274 275 276 276 279 279 279 280 279 279 277 277 274 272 268 266 256 237 224 219 220 219 216 223 228
325 320 317 312 309 305 303 299 297 296 294 290 285 282 279 279 277 274 273 273 273 274 274 275 276 276 275 275 275 279 276 271 263 256 249 231 224 219 210 210 217 226 236
325 321 320 317 313 310 309 305 301 297 292 290 289 289 287 280 275 273 271 271 270 271 271 271 274 273 275 277 280 280 274 258 246 248 238 230 218 212 207 214 221 224 236
323 323 321 319 316 314 313 308 304 300 295 293 291 291 289 286 284 282 279 275 270 266 266 268 268 269 273 278 283 277 270 261 249 246 223 220 214 214 220 213 218 233 249
320 320 318 318 317 316 312 308 306 301 294 291 291 290 287 287 285 285 282 278 274 270 266 264 262 266 269 272 272 271 271 249 234 238 221 210 210 211 217 222 228 246 249
316 316 317 317 316 315 314 311 307 303 301 298 296 291 289 288 288 286 282 281 279 275 272 267 259 258 255 258 255 252 234 219 199 197 197 204 206 213 225 233 241 235 238
313 313 313 314 314 315 316 314 312 309 307 308 302 294 290 290 290 287 283 281 279 278 277 268 252 244 238 232 215 220 217 199 188 180 200 198 204 206 214 227 230 229 228
Wind_Speed_850mb
15 13 11 11 10 9 8 7 6 5 5 5 5 7 10 13 14 13 18 19 23 25 24 10 9 10 12 13 16 19 18 21 19 21 24 22 24 24 21 22 22 21 21
22 20 18 17 16 14 14 12 12 11 9 9 9 9 11 15 17 20 24 27 29 28 27 24 16 14 14 16 17 20 21 22 22 23 22 24 24 23 22 22 21 19 18
27 25 25 23 21 21 22 21 18 17 15 16 18 20 21 19 19 24 30 31 34 33 31 32 26 21 20 20 22 22 25 27 25 25 24 24 24 24 23 21 20 18 17
32 31 32 32 29 30 30 31 29 28 30 28 28 28 29 30 29 32 37 39 39 39 39 38 37 36 29 26 27 27 28 32 30 29 29 28 27 25 24 23 20 17 15
38 37 40 36 35 36 38 42 40 40 42 44 43 42 42 40 44 41 37 40 45 48 48 47 46 49 45 38 34 37 36 39 37 35 34 32 31 29 26 25 23 21 17
40 46 46 46 48 48 42 40 47 48 50 50 54 54 57 53 55 54 55 54 54 52 57 56 56 57 58 54 45 43 42 42 41 44 42 40 37 35 33 28 27 25 22
49 46 47 51 53 59 57 54 52 52 57 56 60 62 65 67 65 68 63 67 66 65 66 66 65 66 68 66 62 53 49 49 51 51 51 46 43 41 39 35 33 30 25
62 61 59 55 55 60 64 71 62 65 64 66 66 69 62 67 74 72 71 74 73 75 75 76 75 77 76 77 75 71 63 59 59 59 59 54 51 47 43 41 38 35 30
66 69 70 70 68 64 69 66 75 83 79 72 73 68 33 44 53 52 58 57 56 71 78 82 81 83 87 87 83 83 83 75 65 64 66 61 58 54 50 45 41 39 34
65 66 69 69 70 72 73 64 66 74 72 88 87 85 90 87 55 51 64 60 65 68 69 75 86 85 92 95 95 94 93 93 86 78 72 72 66 61 56 51 48 45 40
61 61 60 63 64 67 67 72 71 73 77 81 87 93 99 100 101 96 70 87 87 85 87 86 76 83 95 97 101 104 103 100 99 90 83 85 79 69 63 57 52 49 44
54 53 55 58 58 61 64 67 70 77 77 84 90 90 97 92 92 96 103 106 96 98 89 89 96 90 88 93 93 111 112 105 108 102 94 91 88 79 70 60 56 53 48
44 45 47 52 58 60 60 65 73 74 71 78 82 88 93 105 91 106 93 90 100 101 99 96 99 94 94 93 90 85 100 104 114 112 104 102 99 94 83 66 58 54 52
35 39 43 48 53 57 64 70 72 75 77 82 83 86 92 92 91 92 90 99 93 89 100 106 99 97 91 87 89 81 81 86 104 116 116 114 107 108 96 87 71 57 56
27 31 36 41 44 50 57 64 71 76 80 83 86 85 89 90 90 91 93 88 87 87 96 78 85 87 87 81 82 80 84 80 81 96 114 122 109 114 97 94 84 62 60
36 37 37 39 41 46 50 57 64 71 75 82 85 87 89 89 90 90 91 91 92 93 109 83 85 89 87 87 80 85 82 83 88 85 92 120 112 117 100 98 77 63 57
46 48 50 52 52 52 52 57 62 67 75 80 85 86 91 88 90 91 92 89 90 88 97 109 96 98 94 94 90 83 78 83 81 77 78 97 114 114 88 84 74 64 60
49 53 56 60 62 64 63 64 66 67 71 76 81 86 90 88 91 89 87 87 88 89 89 103 98 99 97 94 88 80 80 81 80 77 69 90 117 114 93 82 80 70 62
49 51 56 58 59 59 61 63 66 69 71 74 76 79 83 80 84 80 80 82 86 86 88 92 101 95 97 94 85 86 82 79 77 76 67 70 105 108 76 78 68 68 65
49 49 49 52 55 59 63 65 66 68 70 72 74 75 77 79 77 73 74 78 79 83 85 88 92 95 97 91 84 86 84 80 76 71 60 57 80 84 80 73 74 65 63
53 55 57 56 58 59 59 63 67 72 76 75 73 73 71 67 66 68 70 74 76 79 80 86 87 88 94 91 90 87 79 74 68 65 56 57 71 71 76 66 71 56 71
66 65 63 66 67 67 67 67 69 70 70 72 75 71 64 59 63 66 69 72 73 78 83 83 87 87 89 86 78 70 65 62 59 59 54 55 65 80 79 77 65 67 70
74 74 73 74 74 73 73 75 74 72 71 69 67 65 64 63 60 65 67 69 73 76 81 78 81 79 77 71 56 54 55 54 59 50 44 59 67 78 74 71 65 76 70
81 82 81 79 79 74 74 74 74 72 69 66 61 59 62 65 63 62 66 69 71 72 75 70 72 67 58 50 42 37 40 46 41 32 37 49 61 69 69 62 60 62 56
82 85 85 83 80 77 71 71 71 68 68 66 58 53 58 62 60 59 63 66 63 61 56 50 45 44 41 37 32 30 34 41 34 33 39 42 50 54 52 50 55 48 43
80 82 81 76 75 75 71 66 60 59 61 57 51 47 49 53 54 53 53 53 54 48 37 31 29 29 27 22 19 17 25 41 39 30 36 39 31 39 36 45 45 46 52
Wind_Direction_850mb
251 248 253 246 243 241 237 228 231 252 276 288 298 291 287 292 291 272 272 294 304 313 315 292 224 213 200 185 187 180 173 178 172 173 159 166 150 151 151 146 141 135 129
247 248 249 250 249 246 241 237 234 242 256 268 280 284 297 291 287 294 291 299 297 301 303 298 266 229 232 217 208 199 194 191 189 188 186 180 173 173 168 164 158 151 144
253 257 256 258 258 260 255 248 250 260 276 298 294 290 275 273 294 294 287 286 283 285 290 288 284 251 234 223 221 224 214 203 206 200 199 195 191 187 182 179 173 168 159
249 255 256 255 256 257 263 259 250 246 250 254 259 271 274 281 280 282 283 281 279 280 280 277 275 272 241 234 232 227 222 216 211 214 206 204 198 198 198 194 191 187 178
251 254 261 261 257 259 261 264 264 259 257 259 259 265 263 267 268 265 269 273 280 281 277 276 271 272 266 239 233 226 225 221 216 215 212 209 205 205 206 203 207 204 200
256 258 259 263 262 258 253 261 264 271 264 266 266 264 270 265 269 267 266 269 267 264 270 269 269 269 268 266 249 234 232 231 228 223 217 213 215 213 213 210 213 217 214
265 263 262 258 260 263 263 257 256 264 266 267 263 268 266 269 269 270 269 265 267 268 267 267 268 268 266 264 262 253 240 236 233 232 227 221 222 219 218 214 222 225 226
263 266 269 269 264 263 263 265 253 260 262 261 262 265 264 277 275 271 270 273 269 267 266 267 267 265 266 264 263 260 246 237 237 234 232 226 225 221 220 225 226 228 229
267 267 268 269 271 269 265 270 266 258 263 260 261 255 249 259 273 279 275 273 274 270 267 266 264 268 262 264 265 262 259 247 236 237 235 229 227 224 224 223 225 231 232
276 275 274 273 273 273 272 277 270 268 271 271 255 258 261 258 261 273 275 279 277 275 272 270 264 265 266 262 262 263 261 256 252 236 234 236 230 228 227 227 229 232 233
280 282 282 278 275 272 281 276 277 276 272 277 270 271 259 259 257 259 269 275 275 278 276 281 269 274 272 264 263 264 259 255 256 249 237 234 235 227 224 225 230 232 233
283 284 285 284 284 278 277 279 280 277 278 277 275 273 271 264 274 271 264 274 274 287 281 275 280 279 278 271 274 268 261 258 256 251 245 238 235 229 220 224 229 233 233
281 281 279 277 278 283 281 279 279 279 278 276 276 279 274 274 275 270 271 275 275 289 281 281 288 281 286 280 281 281 269 266 256 251 252 244 236 231 227 224 227 230 233
281 279 275 271 267 264 268 271 273 274 274 274 278 279 280 273 276 274 279 278 277 280 285 284 287 287 285 286 290 281 278 273 267 252 250 244 239 232 229 232 223 231 231
301 294 289 284 278 273 268 265 267 269 269 270 272 273 273 273 276 276 276 276 276 275 276 276 281 282 285 283 293 284 283 278 269 260 246 242 242 233 229 230 236 230 229
307 303 298 291 286 282 277 273 271 272 272 272 271 271 270 271 272 274 273 273 273 273 277 279 277 282 283 281 286 280 282 281 276 271 253 241 234 234 230 234 230 224 228
309 305 302 299 298 296 291 285 281 277 274 275 276 276 276 275 273 272 274 273 274 272 274 282 283 285 284 285 284 283 281 281 278 275 260 237 231 231 222 234 222 222 223
316 311 308 304 301 298 294 290 287 283 278 275 275 276 276 277 277 277 278 276 276 277 275 281 285 285 285 284 283 281 281 280 276 270 260 230 231 229 229 229 218 224 225
320 318 317 315 312 307 302 298 293 289 285 282 279 275 275 274 273 272 277 276 277 279 279 281 283 283 280 281 281 281 281 278 271 266 260 244 236 233 223 211 222 223 221
321 316 312 308 307 306 307 305 299 294 290 286 283 279 277 274 273 275 274 275 276 276 279 279 279 280 279 279 277 277 274 272 268 266 256 237 224 219 220 219 216 223 228
325 320 317 312 309 305 303 299 297 296 294 290 285 282 279 279 277 274 273 273 273 274 274 275 276 276 275 275 275 279 276 271 263 256 249 231 224 219 210 210 217 226 236
325 321 320 317 313 310 309 305 301 297 292 290 289 289 287 280 275 273 271 271 270 271 271 271 274 273 275 277 280 280 274 258 246 248 238 230 218 212 207 214 221 224 236
323 323 321 319 316 314 313 308 304 300 295 293 291 291 289 286 284 282 279 275 270 266 266 268 268 269 273 278 283 277 270 261 249 246 223 220 214 214 220 213 218 233 249
320 320 318 318 317 316 312 308 306 301 294 291 291 290 287 287 285 285 282 278 274 270 266 264 262 266 269 272 272 271 271 249 234 238 221 210 210 211 217 222 228 246 249
316 316 317 317 316 315 314 311 307 303 301 298 296 291 289 288 288 286 282 281 279 275 272 267 259 258 255 258 255 252 234 219 199 197 197 204 206 213 225 233 241 235 238
313 313 313 314 314 315 316 314 312 309 307 308 302 294 290 290 290 287 283 281 279 278 277 268 252 244 238 232 215 220 217 199 188 180 200 198 204 206 214 227 230 229 228